User: anonymous   Login
Location: New Mesquite
(33.1168°N, 96.4336°W)
Time: 12:13:24
(UTC+00:00)
Language:

OPS-SAT - Orbit

View from above orbital plane
View from above orbital plane
View from above satellite
View from above satellite

Ground track
Ground track

The orbit data is extracted from the following two-line orbital elements,

1 44878U 19092F   22268.47272346  .00010539  00000-0  46960-3 0  9993
2 44878  97.4810  91.6789 0011971 357.2264   2.8904 15.21553233153394
Epoch (UTC): 25 September 2022 11:20:43
Eccentricity: 0.0011971
inclination: 97.4810°
perigee height: 493 km
apogee height: 509 km
right ascension of ascending node: 91.6789°
argument of perigee: 357.2264°
revolutions per day: 15.21553233
mean anomaly at epoch: 2.8904°
orbit number at epoch: 15339

The dashed part of the orbit path shows where the satellite is in the earth's shadow,  

DLR